Regional Weather Roundup
Issued by NWS Wakefield, VA

Home | Current Version | Previous Version | Text Only | Print | Product List | Glossary On
Versions: 1 2 3 4 5 6 7 8 9 10 11 12 13 14 15 16 17 18 19 20 21 22 23 24 25 26 27 28
000
ASUS41 KAKQ 241915
RWRAKQ

REGIONAL WEATHER ROUNDUP
NATIONAL WEATHER SERVICE WAKEFIELD VA
300 PM EDT WED AUG 24 2016

Note: "fair" indicates few or no clouds below 12,000 feet with no
significant weather and/or obstructions to visibility. * = Denotes
station may not report precipitation (e.g., rain,snow,etc.),
thunder or fog.

VAZ042-051-052>054-056-242000-
NORTHERN VIRGINIA

CITY           SKY/WX    TMP DP  RH WIND       PRES   REMARKS
WASH NATIONAL  PTSUNNY   85  65  51 S13       30.23F
DULLES         MOSUNNY   84  63  49 S13       30.22F
FORT BELVOIR   SUNNY     84  65  52 S5        30.23F
QUANTICO       MOSUNNY   83  66  56 S13       30.23F
FREDERICKSBRG*   N/A     85  67  55 S9        30.22F
STAFFORD*      MOSUNNY   85  62  46 SE8       30.27F
WARRENTON      PTSUNNY   85  62  44 S8        30.23F
CULPEPER*      MOSUNNY   86  69  57 S8        30.23F
MANASSAS*      MOSUNNY   84  66  54 S10       30.23F
LEESBURG*      MOSUNNY   88  68  51 S7        30.23F
WINCHESTER     MOSUNNY   84  66  54 SE9       30.21F
FRONT ROYAL*   FAIR      84  68  58 S6        30.21F
LURAY*         FAIR      86  59  39 SW8       30.22F
$$

VAZ048-049-060>072-079>083-242000-
CENTRAL AND SOUTH CENTRAL VIRGINIA

CITY           SKY/WX    TMP DP  RH WIND       PRES   REMARKS
RICHMOND       PTSUNNY   84  60  44 VRB3      30.24F
CHESTERFIELD*  MOCLDY    88  55  33 W6        30.26F
PETERSBURG*    MOSUNNY   87  60  41 CALM      30.25F
HANOVER        MOSUNNY   84  61  45 SE7       30.25F
TAPPAHANNOCK*  SUNNY     84  61  44 S3        30.26F
QUINTON*       FAIR      83  62  48 SE3       30.24F
CHARLOTTSVILLE MOSUNNY   84  64  50 S9        30.23F
GORDONSVILLE*  FAIR      84  68  58 SW8G16    30.23F
ORANGE*          N/A     86  66  51 CALM      30.25F
LOUISA*        MOSUNNY   86  70  58 S6        30.23F
BUMPASS*       FAIR      84  68  58 S3        30.24F
FARMVILLE*     MOSUNNY   85  65  51 SW7       30.23F
CREWE*         FAIR      83  64  52 S5        30.25F
FORT PICKETT*  NOT AVBL
CHASE CITY*    FAIR      84  62  46 CALM      30.26F
CLARKSVILLE*   FAIR      82  63  51 CALM      30.26F
SOUTH HILL*    PTSUNNY   81  65  58 SE3       30.31F
LAWRENCEVILLE* CLOUDY    82  63  51 CALM      30.25F
EMPORIA*       PTSUNNY   82  61  47 E3        30.26F
$$

VAZ088>098-242000-
SOUTHEAST VIRGINIA

CITY           SKY/WX    TMP DP  RH WIND       PRES   REMARKS
NORFOLK        SUNNY     81  59  47 NE7       30.26F
VIRGINIA BEACH MOSUNNY   87  63  44 NE6       30.25F
NORFOLK NAVAL  MOSUNNY   82  60  47 NE10      30.27F
WEST POINT*    MOSUNNY   85  58  39 CALM      30.26F
SALUDA*        FAIR      80  58  46 E6        30.26F
NEWPORT NEWS   SUNNY     84  56  38 VRB7      30.26F
LANGLEY AFB    MOSUNNY   82  61  49 E10       30.25F
FORT EUSTIS    SUNNY     86  55  34 VRB6      30.23F
WILLIAMSBURG*  SUNNY     88  63  42 S7        30.26S
HR EXEC AP*    FAIR      84  57  39 NW6       30.27F
FRANKLIN*      CLOUDY    83  60  46 N3        30.25F
US460-WAKEFLD  SUNNY     85  59  41 VRB3      30.25F
$$

VAZ020-022-025-037-045-242000-
WEST CENTRAL AND SOUTHWEST VIRGINIA

CITY           SKY/WX    TMP DP  RH WIND       PRES   REMARKS
STAUNTON*      MOSUNNY   83  64  50 S9        30.26F
WAYNESBORO*    MOCLDY    82  63  52 SW5       30.26F
HOT SPRINGS VA PTSUNNY   74  64  70 SE6       30.37F
LYNCHBURG      PTSUNNY   83  66  56 S7        30.27F
DANVILLE       CLOUDY    81  68  64 CALM      30.26F
SOUTH BOSTON*  FAIR      83  65  55 CALM      30.25F
MARTINSVILLE   MOSUNNY   82  68  62 CALM      30.29F
ROANOKE        PTSUNNY   82  68  62 VRB3      30.27F
BLACKSBURG     PTSUNNY   80  66  62 W3        30.34F
DUBLIN*        CLOUDY    81  66  60 SW5       30.32F
MARION*        CLOUDY    78  64  62 W8        30.36F
HILLSVILLE*    CLOUDY    75  67  75 SW7       30.34F
RICHLANDS*     MOCLDY    76  68  75 S3        30.33F
WISE*          CLOUDY    77  59  53 SW12      30.33F
ABINGDON*      PTSUNNY   80  66  62 W3        30.32F
$$

MDZ021>025-VAZ099-100-242000-
SOUTHERN MARYLAND AND THE DELMARVA PENINSULA

CITY           SKY/WX    TMP DP  RH WIND       PRES   REMARKS
PATUXENT RIVER MOSUNNY   81  61  50 SE12      30.25F
BAY BRIDGE APT SUNNY     86  63  45 S8        30.24F
LEONARDTOWN    MOSUNNY   82  59  44 W7        30.26F
DOVER          MOSUNNY   81  68  65 E10       30.23F
GEORGETOWN     SUNNY     83  58  42 W6        30.25F
EASTON         MOSUNNY   84  66  54 W7        30.28F
CAMBRIDGE      MOSUNNY   81  63  54 S5        30.24F
SALISBURY      SUNNY     83  58  42 SE3       30.25F
OCEAN CITY     SUNNY     79  59  50 SE7       30.27F
WALLOPS ISLAND PTSUNNY   81  53  37 SE7       30.27F
ACCOMACK*      SUNNY     82  59  46 SE7       30.26S
$$

NCZ012>017-030>032-242000-
NORTH CENTRAL AND EASTERN NORTH CAROLINA

CITY           SKY/WX    TMP DP  RH WIND       PRES   REMARKS
ROANOKE RAPIDS FAIR      82  63  51 E3        30.25F
RALEIGH        CLOUDY    85  61  44 SE5       30.26F
ELIZABETH CITY MOSUNNY   82  64  54 NE7       30.25F
AHOSKIE*       MOSUNNY   82  61  48 NE7       30.24F
EDENTON*       PTSUNNY   86  61  43 W3        30.25F
CURRITUCK*       N/A     82  65  56 E6        30.26F
KILL DEVIL HLS SUNNY     86  73  64 NE6       30.24S
MANTEO         MOSUNNY   82  71  68 NE10      30.24F
CAPE HATTERAS  CLOUDY    81  72  74 NE7       30.22F
TARBORO*       FAIR      86  64  46 N5        30.25F
GOLDSBORO      MOSUNNY   86  61  42 N10       30.23F
WASHINGTON     CLOUDY    83  60  45 N9        30.24F
GREENVILLE     MOSUNNY   86  61  42 N10       30.25F
NEW BERN       MOSUNNY   83  63  50 VRB5      30.24F
WILMINGTON     MOSUNNY   86  61  42 NE12      30.22F
$$

VAZ048-242000-
ELSEWHERE

CITY           SKY/WX    TMP DP  RH WIND       PRES   REMARKS
HARRISBURG PA  CLOUDY    86  67  52 SW6       30.19F
BALTIMORE      PTSUNNY   84  63  49 VRB7      30.22F
ANNAPOLIS      SUNNY     82  66  58 SE14      30.23F
ANDREWS AFB    MOSUNNY   84  64  50 S13       30.23F
PHILADELPHIA   MOSUNNY   85  59  41 SW10      30.23F
HENDERSON NC   MOSUNNY   79  61  54 CALM      30.26F
GREENSBORO     CLOUDY    83  64  52 NW7       30.26F
ROCKY MOUNT    MOSUNNY   86  62  44 NE9G17    30.25F
$$

VAZ100-242000-
MARINE

STATION/POSITION TIME  TEMP    WIND        PRES    WAVE   SWELL
                       AIR SEA DIR/SP/G            HT/PER HT/PER
                 (UTC) (F)     (DEG/KT/KT) (MB)    (FT/S) (FT/S)
BRANDYWINE LGT   1800   75     140/  5/  6   N/A
CAPE MAY NJ      1800   76 74  260/  5/  5 1024.5F
LEWES DE         1800   78 76  100/  8/ 10 1024.6F
OCEAN-CITY-INLET 1800   78 73  150/  5/  7 1025.5F
WACHAPREAGUE VA  1800   77 80  100/  5/  7 1025.2F
THOMAS POINT MD  1900   79 82  160/ 11/ 12 1025.1F
GOOSES REEF MD   1900   80 83  170/ 12/ 14 1024.7F   1/ 2
COVE POINT MD    1800   78     190/ 10/ 12 1025.4F
SOLOMONS ISLAND  1800   79 84  130/  8/ 11   N/A
BISHOPS HEAD MD  1800   78 82  140/  5/  6 1025.3F
PINEY POINT MD   1800          150/ 10/ 11   N/A
POTOMAC MD       1900   79 85  160/  8/ 10 1023.6F   0
CAMBRIDGE MD     1800   80 83   20/  2/  3 1023.8F
LEWISETTA VA     1800   79 83  120/  8/  9 1024.5F
RAPPAHANNOCK LGT 1800          290/  4/  5 1025.7F
STINGRAY PT      1900   79 85  100/  4/  6 1025.1F   0
YORK RVR RNG VA  1800   78     130/  3/  4 1024.8F
YORKTOWN VA      1800   80 83  100/  6/  8 1024.7F
JAMESTOWN VA     1900   81 86  180/  4/  6   N/A     0
DOMINION TERM VA 1800   78      90/  8/ 11 1025.3F
KIPTOPEKE VA     1800      80   70/  6/ 10   N/A
CHES BAY BRIDGE  1800   76 78   50/  8/  9 1025.1F
CAPE HENRY VA    1800   76      40/  8/  9   N/A
WILLOUBY STN VA  1800   77      80/  6/  7   N/A
CAPE HENRY BUOY  1812      79                N/A     2/13   2/13
1ST LANDING BUOY 1900   76 78   90/  6/  8 1024.6F   1/ 3
CAPE CHARLES BUO 1826      78                N/A     2/13
OFFSHORE WE BUOY 1821      80                N/A     3/13   2/13
64NM E OF VA BCH 1850   79 82   70/  8/ 12 1024.0F   3/11   2/11
DUCK PIER NC     1800   78 79   20/  8/ 10 1024.1F
44100 DUCK FRF   1805      81                N/A     2/ 4
44056 DUCK FRF   1811      76                N/A     2/13
OREGON INLET NC  1800   80 78   20/  9/ 12 1024.1F
HATTERAS NC      1800   79 79   20/ 11/ 14 1023.5F
DIAMOND SHLS NC  1750   81 85  100/ 12/ 14 1023.3    3/ 7   2/ 7
CAPE LOOKOUT NC  1900   79     360/ 13/ 15 1022.9F
$$




USA.gov is the U.S. government's official web portal to all federal, state and local government web resources and services.